Weather History for Mineral Wells, TX

Change the Weather History Date:

Wednesday, November 14, 2012

  Actual Average Record
Temperature  
Mean Temperature 48 °F -  
Max Temperature 62 °F 64 °F 84 °F (1999)
Min Temperature 33 °F 45 °F 24 °F (2000)
Degree Days  
Heating Degree Days 18    
Moisture  
Dew Point 25 °F    
Average Humidity 43    
Maximum Humidity 82    
Minimum Humidity 21    
Precipitation  
Precipitation 0.00 in - - ()
Sea Level Pressure  
Sea Level Pressure 30.33 in    
Wind  
Wind Speed 4 mph (SE)    
Max Wind Speed 10 mph    
Max Gust Speed -    
Visibility 10 miles    
Events      
Averages and records for this station are not official NWS values.
T = Trace of Precipitation, MM = Missing Value Source: NWS Daily Summary

Daily Weather History Graph

Daily Weather History Graph

Search for Another Location

Airport:

Trip Planner

Search our weather history database for the weather conditions in past years. The results will help you decide how hot, cold, wet, or windy it might be!

Date:

Astronomy

Nov. 14, 2012 Rise Set
Actual Time 7:01 AM CST 5:31 PM CST
Civil Twilight 6:35 AM CST 5:57 PM CST
Nautical Twilight 6:06 AM CST 6:27 PM CST
Astronomical Twilight 5:36 AM CST 6:56 PM CST
Moon 7:49 AM CST (11/14) 6:24 PM CST (11/14)
Length of Visible Light 11h 21m
Length of Day
10h 29m
New Moon, 1% of the Moon is Illuminated
Nov 14
New Moon
Nov 20
First Quarter
Nov 28
Full
Dec 6
Last Quarter
Dec 13
New

Hourly Weather History & Observations

Time (CST) Temp. Windchill Dew Point Humidity Pressure Visibility Wind Dir Wind Speed Gust Speed Precip Events Conditions
12:53 AM 42.1 °F 40.2 °F 25.0 °F 51% 30.36 in 10.0 mi ESE 3.5 mph - N/A   Clear
1:53 AM 39.9 °F 36.7 °F 25.0 °F 55% 30.36 in 10.0 mi SE 4.6 mph - N/A   Clear
2:53 AM 39.9 °F 35.8 °F 25.0 °F 55% 30.36 in 10.0 mi SSE 5.8 mph - 0.00 in   Clear
3:53 AM 36.0 °F 32.1 °F 25.0 °F 64% 30.36 in 10.0 mi SSE 4.6 mph - N/A   Clear
4:53 AM 34.0 °F - 25.0 °F 70% 30.36 in 10.0 mi Calm Calm - N/A   Clear
5:53 AM 33.1 °F - 25.0 °F 72% 30.37 in 10.0 mi Calm Calm - N/A   Clear
6:53 AM 33.1 °F - 28.0 °F 82% 30.38 in 10.0 mi Calm Calm - N/A   Clear
7:53 AM 35.1 °F - 28.9 °F 78% 30.40 in 10.0 mi Calm Calm - N/A   Clear
8:53 AM 42.1 °F - 30.0 °F 62% 30.41 in 10.0 mi Calm Calm - N/A   Clear
9:53 AM 52.0 °F - 28.0 °F 40% 30.41 in 10.0 mi South 6.9 mph - N/A   Clear
10:53 AM 55.0 °F - 26.1 °F 33% 30.40 in 10.0 mi South 8.1 mph - N/A   Clear
11:53 AM 57.0 °F - 25.0 °F 29% 30.37 in 10.0 mi Calm Calm - N/A   Clear
12:42 PM 60.8 °F - 24.8 °F 25% 30.35 in 2.5 mi Calm Calm - N/A   Haze
12:51 PM 60.8 °F - 24.8 °F 25% 30.34 in 10.0 mi Calm Calm - N/A   Clear
12:53 PM 61.0 °F - 25.0 °F 25% 30.33 in 10.0 mi Calm Calm - N/A   Clear
1:53 PM 62.1 °F - 21.9 °F 21% 30.31 in 10.0 mi East 5.8 mph - N/A   Clear
2:53 PM 62.1 °F - 21.0 °F 21% 30.29 in 10.0 mi Variable 5.8 mph - N/A   Clear
3:53 PM 62.1 °F - 21.0 °F 21% 30.27 in 10.0 mi SSE 5.8 mph - N/A   Clear
4:53 PM 60.1 °F - 21.9 °F 23% 30.26 in 10.0 mi SE 9.2 mph - N/A   Clear
5:53 PM 53.1 °F - 21.0 °F 29% 30.27 in 10.0 mi ESE 4.6 mph - N/A   Clear
6:53 PM 50.0 °F - 21.9 °F 33% 30.28 in 10.0 mi SE 6.9 mph - N/A   Clear
7:53 PM 46.9 °F - 21.9 °F 37% 30.27 in 10.0 mi SSE 6.9 mph - N/A   Clear
8:53 PM 46.9 °F - 23.0 °F 39% 30.27 in 10.0 mi SSE 9.2 mph - N/A   Clear
9:53 PM 46.0 °F 41.0 °F 23.0 °F 40% 30.27 in 10.0 mi SE 10.4 mph - N/A   Clear
10:53 PM 44.1 °F 38.6 °F 25.0 °F 47% 30.26 in 10.0 mi SE 10.4 mph - N/A   Clear
11:53 PM 42.1 °F 37.1 °F 26.1 °F 53% 30.26 in 10.0 mi SE 8.1 mph - N/A   Clear